Theta_e
308 308 309 309 309 309 308 307 307 307 307 307 307 307 307 307 307 307 307 307 307 307 308 308 308 309 309 309 310 310 310 311 311 315 318 318 319 320 316 314 313 313 314 315 316 315 316 316 316 315 318 320 320 322 321 321 328 335 337 326 326 331 329 328 323 318 320 320 319 318 318 318 318 317 317 317 318 319 319 319 317 316 316 315 316 315 316 319
309 309 309 309 309 309 308 307 307 308 308 308 308 308 308 308 308 308 308 308 308 308 308 309 309 309 309 310 310 310 311 311 314 319 320 320 321 321 318 314 313 313 313 315 315 315 316 317 316 316 320 322 321 321 322 323 325 331 331 325 331 337 332 326 319 318 319 318 320 320 318 319 318 316 317 317 318 319 317 318 317 317 317 315 314 313 315 318
309 309 310 310 309 308 308 308 308 308 309 309 309 309 309 309 309 309 309 308 309 309 309 309 309 309 309 310 310 310 311 314 322 323 319 321 321 319 316 314 314 313 313 315 316 316 316 317 315 317 320 320 322 324 324 323 323 330 328 326 336 336 327 323 320 318 318 319 320 320 320 320 320 318 317 316 318 319 318 318 318 318 317 316 316 312 314 320
310 310 310 311 311 310 309 309 309 310 309 309 309 310 310 310 309 309 309 309 309 308 309 309 309 308 309 309 309 310 313 317 325 321 315 318 317 315 315 314 314 313 314 316 317 317 317 317 314 317 318 319 324 325 326 325 323 327 325 328 337 329 322 324 322 319 320 320 320 321 321 321 320 318 317 317 318 318 318 318 318 319 317 317 317 314 313 317
313 311 310 311 311 311 310 310 310 310 310 310 310 311 311 310 310 310 310 311 310 310 310 310 310 310 309 309 309 312 316 318 319 316 314 315 314 314 314 314 315 313 315 317 317 317 317 316 315 317 318 319 323 321 325 327 322 323 324 327 332 325 321 323 321 320 321 321 320 321 320 319 318 317 317 317 317 317 317 318 318 318 317 316 315 315 314 315
314 312 310 310 310 311 311 311 311 311 311 311 311 312 312 312 312 312 312 313 313 312 312 312 312 312 311 310 311 314 317 317 316 316 315 314 314 314 314 314 314 313 315 317 316 316 317 316 315 318 318 318 320 318 321 322 319 322 324 323 323 322 320 319 318 319 320 319 320 320 319 319 318 318 317 316 317 316 316 317 318 317 316 314 313 314 317 319
314 312 311 311 311 312 311 311 312 312 313 313 313 313 313 314 314 314 314 314 313 314 314 313 313 313 313 312 315 319 319 318 318 319 317 314 315 315 314 314 314 314 315 316 316 316 318 317 315 318 318 317 319 318 318 317 318 321 323 323 322 321 320 319 318 317 318 319 319 319 318 319 319 319 317 316 317 315 315 315 316 314 312 313 314 315 317 319
314 313 313 311 311 313 313 313 314 314 314 314 314 315 315 315 316 316 315 315 315 314 314 313 312 312 313 314 318 322 321 319 319 320 319 315 315 315 314 314 313 314 315 315 316 316 317 318 317 317 317 317 317 317 317 317 318 319 320 322 320 320 319 318 317 317 318 317 318 319 318 320 320 318 317 316 317 315 315 314 315 314 313 314 314 315 316 317
315 314 313 312 313 314 315 316 316 316 316 316 316 317 317 317 317 317 317 316 316 315 314 313 312 311 312 315 319 322 321 320 319 319 317 315 314 314 314 314 314 314 315 316 316 315 316 318 318 316 317 318 317 317 317 316 319 318 317 317 317 317 316 316 316 316 316 315 315 316 317 319 318 316 316 318 317 316 315 314 315 314 315 315 314 315 314 317
315 315 313 314 316 316 317 317 317 318 317 317 318 317 318 318 318 318 318 318 318 317 315 313 312 311 312 315 320 322 321 320 321 320 317 314 314 313 314 316 315 314 315 316 316 315 316 317 318 317 317 318 316 317 317 315 316 316 315 316 316 316 315 315 315 314 314 314 314 314 315 315 315 316 316 317 317 316 315 314 314 314 315 315 314 315 313 314
314 315 314 316 317 317 317 317 318 318 318 319 319 319 319 318 319 319 319 319 317 315 314 312 311 311 314 318 323 322 320 319 319 320 317 314 314 314 315 318 317 315 316 317 317 316 317 316 316 317 317 316 315 316 316 314 314 315 315 316 316 316 315 314 314 314 313 314 315 314 314 314 314 315 316 316 316 314 314 315 314 313 315 315 314 316 315 312
315 315 316 317 318 317 317 317 318 319 320 321 320 320 319 320 320 320 319 317 316 314 313 312 309 310 315 319 322 320 318 319 317 316 316 316 316 315 316 319 319 316 317 318 317 316 316 317 317 318 317 316 316 316 315 313 313 315 314 315 316 315 314 314 314 314 313 314 316 314 314 316 315 316 316 315 315 315 316 316 316 315 314 313 314 316 314 310
315 316 318 318 318 317 317 317 319 321 322 322 322 321 321 322 322 320 318 315 314 313 312 311 309 310 315 319 319 316 316 318 318 317 316 317 316 316 317 319 319 317 317 318 317 315 315 316 316 317 317 316 317 315 314 314 314 315 314 314 316 315 316 315 314 315 313 313 316 315 316 320 318 317 317 315 314 315 317 317 316 315 313 313 315 315 312 308
315 317 317 318 318 317 316 318 320 321 322 323 322 322 322 322 321 319 316 314 313 312 311 310 309 311 316 319 316 314 316 317 318 318 316 316 315 316 317 318 318 317 317 317 316 315 315 315 315 316 316 317 317 315 315 314 314 314 313 316 317 316 320 319 315 316 315 313 314 314 316 320 320 318 319 316 316 316 316 316 315 314 313 314 314 312 308 308
316 316 317 317 316 316 317 319 321 322 322 323 322 322 322 322 320 317 315 313 312 310 311 309 311 315 318 318 315 314 316 316 317 318 316 316 316 315 316 316 317 316 316 316 316 315 314 314 314 316 317 317 315 315 316 317 318 315 314 323 323 317 321 320 316 316 315 314 313 313 317 319 317 317 319 317 316 316 316 315 314 313 313 312 311 309 308 307
316 316 316 316 316 316 318 320 321 322 323 323 322 322 322 321 318 315 313 311 310 311 312 312 314 317 318 316 314 313 315 315 317 317 316 316 316 316 315 315 315 315 314 314 314 314 313 314 315 316 317 316 315 316 320 322 324 321 316 322 324 318 319 320 320 318 316 315 312 313 317 317 317 318 319 317 315 315 314 313 313 313 312 310 308 308 307 305
316 316 316 316 317 319 321 321 322 322 323 323 322 321 321 320 316 313 312 310 313 315 316 317 315 314 314 313 314 316 315 315 316 317 316 315 317 316 314 314 314 313 313 312 313 313 313 314 314 315 315 316 316 317 321 323 325 327 321 320 323 320 318 320 323 319 315 316 314 313 314 314 317 318 317 317 316 315 314 313 313 312 310 308 308 307 305 305
317 317 317 318 319 320 322 322 322 323 323 323 322 321 321 319 315 314 313 311 313 315 315 316 314 317 318 314 315 317 316 316 316 316 314 315 316 316 314 313 313 313 313 314 314 312 313 315 316 318 317 316 315 314 320 323 323 326 325 322 323 322 320 320 321 319 317 317 316 316 315 314 314 314 315 316 315 314 314 313 313 311 309 308 308 306 305 304
319 319 319 320 321 321 322 322 323 322 323 323 322 321 321 319 315 314 315 316 318 321 320 316 316 323 322 316 317 317 315 315 315 315 313 314 316 315 314 313 314 314 315 317 316 314 316 318 318 319 320 318 316 314 317 320 319 321 322 321 322 321 321 320 318 319 318 317 318 318 317 316 315 315 316 316 314 314 314 314 312 310 309 308 306 305 304 303
320 320 320 321 321 321 322 322 322 322 322 323 321 322 323 325 325 320 318 319 320 322 322 317 317 320 318 317 319 316 314 313 315 316 312 313 315 315 314 314 315 315 317 322 319 315 317 321 321 321 322 320 318 315 314 315 316 317 318 320 322 321 321 319 318 320 317 316 320 320 318 318 318 318 317 315 314 315 315 314 311 310 309 307 306 305 303 303
321 321 321 322 321 322 322 322 322 322 321 321 322 323 322 324 328 324 321 323 319 316 318 316 315 316 316 317 316 314 316 315 314 316 313 313 315 314 315 316 317 318 319 322 319 315 316 320 322 323 321 319 317 316 314 315 316 316 318 320 322 323 320 318 318 318 315 316 321 321 317 319 319 318 316 314 315 315 314 312 310 309 307 306 305 304 303 302
321 322 322 322 322 322 322 322 322 322 321 321 322 321 317 316 317 317 319 325 322 317 318 318 317 317 317 317 316 314 317 317 316 317 314 313 314 315 316 316 318 321 320 318 319 317 317 319 321 320 318 317 316 316 316 318 318 319 320 320 322 322 319 321 321 318 315 315 322 323 318 318 318 317 315 314 314 313 311 310 309 307 306 305 304 303 302 301
322 322 322 322 322 322 323 323 322 322 322 321 321 319 316 315 314 312 315 322 324 321 321 322 321 322 320 317 315 314 317 318 319 320 316 313 315 317 318 316 317 321 319 317 320 321 321 322 319 316 316 316 316 317 318 318 319 321 320 319 322 320 318 322 323 320 317 316 318 320 318 318 317 317 315 311 311 310 308 308 307 306 305 304 303 302 301 301
322 322 322 322 322 322 323 323 322 323 322 321 320 318 317 316 313 312 317 322 324 324 322 320 320 322 321 316 314 316 319 319 320 319 315 314 316 317 317 316 316 319 318 317 319 321 322 322 319 316 316 317 317 319 319 318 321 326 323 320 322 321 319 320 322 321 320 322 323 319 322 326 321 318 316 310 309 309 307 307 306 305 305 303 303 302 301 300
323 323 324 323 322 323 322 322 322 323 323 321 320 319 317 316 313 312 318 323 325 325 321 318 320 320 315 313 315 317 318 318 318 316 313 314 315 316 317 315 316 319 319 317 317 320 320 319 319 319 319 319 320 321 320 319 322 327 327 323 321 321 321 322 325 325 323 326 326 320 326 334 328 321 319 312 309 309 307 306 305 304 304 303 302 301 301 300
323 323 324 324 323 323 322 323 323 323 323 321 319 318 316 316 314 313 318 325 328 328 323 319 319 317 313 313 314 316 319 318 314 312 313 314 313 314 317 317 317 319 321 319 320 322 320 319 321 322 323 322 321 323 322 321 321 324 325 324 325 324 322 325 325 323 324 325 322 318 323 329 325 322 322 315 310 309 307 306 305 304 303 302 301 301 300 299
323 323 324 325 324 323 323 324 323 322 324 322 319 318 317 317 315 313 321 331 331 329 324 318 316 315 313 311 312 317 323 319 312 311 313 313 312 313 316 319 319 318 319 320 324 326 320 319 320 321 324 323 322 325 324 322 323 326 324 322 326 324 320 323 320 319 325 323 320 320 319 321 323 323 320 314 310 309 307 306 305 303 302 301 301 300 300 299
323 323 324 325 324 323 323 324 323 322 323 322 319 318 318 317 315 316 327 336 333 325 321 315 312 312 311 310 311 315 317 316 315 313 310 311 312 313 316 319 318 317 318 320 327 328 320 319 323 324 323 324 327 328 326 323 323 327 323 317 319 318 316 320 318 318 323 319 321 324 318 319 327 328 317 312 312 310 307 306 304 303 302 301 301 300 300 299
323 323 324 324 324 324 323 324 323 322 322 320 320 320 318 315 315 320 329 334 330 321 317 313 310 312 312 311 312 313 310 311 315 313 310 311 311 311 315 316 314 315 315 318 325 326 319 318 324 327 323 325 328 326 326 325 321 322 320 317 320 319 317 318 316 318 320 319 323 325 320 320 328 334 319 311 315 312 308 306 304 303 302 301 301 300 300 299
324 324 324 324 323 322 322 323 323 323 321 320 321 321 319 318 319 327 333 330 327 321 314 312 313 313 312 311 313 312 310 312 313 312 312 312 312 311 312 311 311 317 321 323 324 322 317 313 315 322 322 325 327 320 319 321 318 318 320 322 325 325 323 320 321 323 319 322 328 325 322 319 323 336 326 314 316 313 308 306 304 303 302 301 301 300 299 299
324 323 324 323 322 321 321 322 322 323 321 321 322 320 321 324 325 332 334 327 326 323 314 314 315 312 313 316 317 312 311 313 313 314 314 314 313 312 312 313 314 321 326 326 324 320 317 314 315 319 319 319 321 316 316 320 319 318 321 323 324 328 328 323 323 324 320 327 335 328 323 319 320 333 327 314 313 311 308 306 303 302 301 301 300 299 299 299
323 323 322 322 322 321 322 322 322 322 321 321 322 321 324 327 327 332 330 324 330 327 318 318 316 313 315 318 319 315 313 314 312 314 317 317 317 315 317 322 322 323 326 327 326 322 321 322 319 318 316 316 318 317 319 324 323 320 321 322 325 328 327 324 324 324 322 329 333 325 322 321 322 325 317 310 309 309 308 305 302 301 300 300 300 299 299 299
321 321 321 321 321 321 321 321 321 321 321 320 322 323 326 329 329 330 327 327 331 325 320 322 318 317 319 319 320 318 315 316 313 313 316 318 319 318 319 324 324 324 326 325 325 324 326 326 318 315 317 318 319 317 321 325 319 316 319 323 327 324 321 323 324 321 321 325 325 320 318 322 325 318 308 305 304 304 305 302 301 301 300 300 299 299 299 298
319 319 320 320 320 320 321 320 320 321 320 320 322 324 327 328 328 327 326 327 327 322 321 321 317 317 319 321 323 319 317 318 314 312 315 316 318 320 320 319 318 322 325 323 323 323 325 327 323 320 320 319 316 317 326 330 320 316 321 324 325 325 323 321 320 318 322 327 326 320 318 325 327 315 305 303 302 301 301 300 300 300 299 299 299 299 299 298
317 317 318 319 319 319 320 320 320 320 320 320 323 326 327 328 327 327 329 327 324 323 321 320 321 320 320 322 323 319 318 321 316 314 318 319 321 326 325 321 318 320 324 325 324 320 320 326 325 319 317 316 316 318 323 327 323 318 318 320 323 327 326 321 321 322 323 326 325 321 323 325 318 308 303 303 302 301 301 300 299 299 299 299 299 298 298 298
315 315 316 317 318 318 319 320 320 319 319 322 325 327 324 325 328 329 329 324 323 325 321 321 325 323 323 325 323 319 318 322 320 317 320 321 322 326 325 323 322 320 322 325 324 319 318 324 323 315 314 315 316 319 318 319 324 321 318 324 327 324 321 321 325 325 320 322 322 319 322 319 311 308 305 303 302 301 301 300 300 299 299 299 299 298 297 297
313 313 313 314 316 317 318 319 319 318 319 323 326 326 323 324 326 325 325 321 321 324 322 324 326 323 325 327 326 323 320 321 320 318 322 323 321 323 322 320 320 318 319 320 322 321 319 322 321 318 318 316 312 316 317 316 321 321 320 325 323 318 319 321 323 323 320 321 320 316 319 317 314 314 307 303 305 303 301 301 300 299 299 299 299 298 298 297
311 310 311 312 314 316 317 318 318 317 319 324 326 325 324 324 323 321 323 321 321 323 323 326 326 324 325 326 327 325 321 321 321 319 323 323 320 323 322 319 317 316 317 318 320 323 320 320 321 319 319 316 312 316 320 316 314 317 319 319 317 318 321 322 320 322 321 319 320 321 320 318 318 316 310 307 307 304 301 301 300 299 299 299 299 299 298 297
309 310 314 313 312 314 316 317 316 317 321 324 325 325 324 323 322 322 322 321 322 324 325 325 326 325 325 325 325 323 320 321 321 320 323 322 320 320 319 320 318 314 317 319 320 322 322 322 322 318 317 318 317 318 323 321 314 315 317 317 317 318 321 321 319 322 323 319 320 321 320 323 322 315 313 312 307 303 302 301 300 300 299 298 299 298 298 298
309 313 316 312 310 313 315 316 316 319 322 323 323 324 323 322 323 322 321 321 322 324 324 325 325 326 325 324 324 323 322 322 321 322 324 322 320 320 320 322 319 314 318 321 321 321 321 321 322 320 317 318 320 320 323 324 319 317 318 317 317 317 318 319 317 319 321 320 321 319 319 326 321 311 311 311 305 302 302 302 301 301 299 299 299 298 298 298
309 314 315 311 310 312 314 316 318 320 322 322 321 322 321 321 322 322 321 321 322 322 322 324 325 325 324 324 324 322 321 322 321 321 322 321 320 320 319 319 317 317 320 323 323 321 319 320 324 326 322 320 323 323 321 320 320 322 323 320 319 319 318 318 317 318 318 318 321 318 318 323 317 309 309 308 304 303 302 302 302 301 301 300 298 298 299 298
310 315 313 310 311 313 315 318 319 319 321 320 319 320 319 319 321 322 321 319 320 320 319 321 323 323 323 324 323 320 319 320 321 320 320 321 320 319 317 316 317 320 322 321 321 319 319 321 324 326 322 319 321 319 318 317 317 321 322 320 321 322 320 319 318 318 317 317 318 316 317 319 313 309 309 306 305 305 302 303 304 301 300 299 298 299 299 298
310 312 311 309 311 313 316 318 318 318 319 319 318 318 318 318 319 321 320 318 319 319 319 319 320 320 321 321 321 320 319 320 320 319 320 320 318 316 316 315 317 320 321 320 319 318 320 321 321 321 321 320 318 316 317 319 317 318 318 318 319 318 317 318 317 317 317 317 317 315 316 316 312 309 308 306 306 305 303 304 304 301 299 299 299 298 298 298
310 310 310 309 311 313 315 317 317 317 318 317 318 318 318 318 318 319 320 319 318 319 318 319 319 318 319 319 319 320 320 320 319 319 321 321 317 314 315 315 316 318 318 319 320 320 320 319 318 318 319 319 317 315 315 318 319 318 318 318 316 314 314 313 313 314 314 313 314 314 315 315 313 310 307 306 307 307 306 303 302 303 302 299 298 298 298 298
309 309 311 310 309 311 314 315 315 317 317 316 318 318 317 318 318 318 318 318 318 318 318 319 319 318 318 318 319 319 319 319 320 319 319 318 317 314 314 315 317 317 316 316 318 319 318 316 315 317 317 317 316 314 314 316 316 315 315 316 314 312 312 311 311 313 312 312 312 313 313 313 313 311 308 308 308 308 307 304 302 303 302 299 298 298 297 296
307 309 311 311 310 311 312 313 313 315 316 316 317 317 317 318 318 318 318 318 318 317 318 319 319 318 318 318 318 318 318 318 318 318 317 316 316 314 312 314 315 315 314 314 316 318 317 315 315 315 315 314 313 313 312 313 312 311 311 312 311 310 309 309 311 312 311 311 310 310 310 310 310 309 308 309 310 310 310 307 304 304 301 299 298 297 296 295
307 309 311 311 311 311 312 312 313 314 315 316 316 316 316 317 317 317 318 318 318 317 317 317 317 317 318 318 317 318 318 317 317 318 317 315 314 312 311 312 312 312 312 312 314 316 315 313 314 313 314 314 312 312 311 309 310 310 310 310 309 309 307 307 309 310 310 310 308 308 308 308 308 307 305 306 309 309 309 307 306 305 302 299 298 297 297 295
305 307 309 310 311 312 312 312 313 314 314 315 316 315 316 317 317 317 318 318 316 316 316 316 316 317 318 318 317 317 317 317 316 317 316 315 314 312 311 311 309 309 311 311 312 315 314 313 312 311 312 312 310 309 308 306 307 308 307 308 307 306 305 305 306 307 308 308 307 306 307 306 306 305 304 304 304 305 304 304 304 303 300 298 297 297 297 296
303 303 304 307 309 311 311 311 312 313 314 314 315 315 315 316 316 316 317 317 316 315 315 316 316 316 317 317 316 316 316 315 314 315 315 313 313 312 312 311 308 308 310 310 310 312 312 312 311 309 309 309 307 307 306 305 306 306 306 306 305 304 304 304 303 304 305 305 305 305 305 305 303 303 303 304 303 303 302 300 301 300 298 298 298 297 297 297
301 301 301 304 307 308 309 311 312 313 313 313 314 314 313 314 315 315 315 316 316 316 315 315 316 316 317 316 315 315 314 315 315 314 313 311 311 311 312 311 307 306 307 308 307 308 309 309 308 307 307 307 306 304 304 305 305 303 303 303 302 302 303 303 302 302 303 303 303 303 303 302 302 303 303 303 303 301 299 298 299 299 299 298 298 298 298 297
298 298 299 302 305 307 308 310 311 312 313 312 312 312 312 313 314 314 314 312 313 315 314 314 315 315 314 314 314 314 313 314 314 312 310 310 309 309 310 310 307 306 306 306 305 306 308 307 306 305 306 306 304 301 302 304 303 303 302 301 300 301 301 301 302 302 302 302 301 302 302 301 302 304 303 301 299 298 297 296 296 296 297 297 296 296 297 296
296 297 297 299 303 306 307 309 310 311 312 311 310 311 312 312 312 313 312 310 310 311 311 313 314 312 312 313 312 310 308 308 308 306 306 307 306 306 308 308 307 307 306 305 305 306 307 307 307 306 304 303 302 301 302 303 302 301 301 300 300 300 300 300 301 301 301 301 301 301 301 301 302 304 302 298 296 295 295 294 293 293 293 295 294 295 296 296
Wind_Speed
3 3 2 2 2 2 3 3 3 4 4 4 5 5 5 6 6 6 7 6 7 7 8 9 9 10 11 12 13 14 17 17 16 13 8 8 6 4 4 3 1 3 6 5 6 5 3 2 4 4 3 1 1 1 1 1 2 4 3 2 1 2 3 4 2 2 1 2 4 3 1 4 2 4 2 3 3 4 6 8 6 5 8 11 19 23 13 8
5 3 3 3 2 3 3 4 4 4 4 4 4 5 5 6 7 7 7 7 7 8 8 9 9 10 11 11 13 14 16 17 16 13 9 5 3 4 3 3 0 4 7 7 7 6 5 2 5 5 4 1 1 1 1 1 2 3 3 2 3 5 5 4 3 5 3 3 4 3 4 5 2 4 2 2 7 5 6 9 8 9 11 12 18 16 9 11
5 5 4 4 3 4 4 4 5 5 5 5 5 5 6 6 7 8 8 8 8 8 9 10 9 10 10 10 11 12 15 14 9 7 3 3 4 4 2 1 1 4 6 7 5 6 5 4 5 6 3 0 2 1 1 1 0 2 3 2 6 6 5 7 6 6 5 2 3 4 4 5 5 3 2 4 8 7 6 8 7 12 13 10 11 9 5 13
6 6 6 5 5 4 4 5 5 5 4 5 6 6 6 6 7 8 8 9 9 9 9 9 9 9 8 8 9 10 11 8 3 2 3 7 7 4 2 1 2 5 7 7 4 6 6 6 3 5 2 1 3 2 2 3 2 1 4 4 7 4 3 7 7 7 5 2 2 2 5 6 6 2 2 5 7 7 7 8 8 13 17 11 9 10 6 10
6 6 6 5 5 4 5 5 5 5 4 4 5 6 6 6 7 8 9 9 9 9 9 9 9 8 7 7 7 8 7 4 1 4 6 8 8 5 3 2 2 6 9 6 4 4 4 4 2 2 2 1 3 2 3 6 4 1 4 7 7 3 4 7 6 6 4 4 4 4 5 5 4 2 3 4 7 9 7 7 10 13 15 13 9 11 10 7
6 5 5 5 4 4 5 5 4 4 4 4 5 6 6 7 8 9 10 10 10 10 9 9 8 7 6 5 4 4 3 0 3 4 6 7 6 4 2 2 2 6 10 6 3 2 1 1 2 1 1 1 2 2 6 5 5 3 4 5 7 6 5 5 5 5 4 4 4 3 3 3 4 6 5 5 11 14 9 7 10 12 15 16 10 8 9 9
6 4 5 4 3 4 4 4 4 4 5 5 6 7 8 8 9 10 11 11 11 11 10 9 8 7 6 3 3 3 1 4 6 4 7 7 5 3 1 2 2 7 10 7 3 2 2 1 1 3 2 1 4 5 6 3 4 6 5 5 6 6 5 6 5 6 5 5 6 4 3 3 6 6 3 6 14 16 13 9 10 13 16 16 12 9 8 9
6 5 5 5 4 4 3 3 4 4 5 6 7 8 9 10 10 11 12 12 12 12 11 9 7 6 4 1 0 3 1 6 8 7 9 8 5 3 3 3 4 9 9 7 5 3 2 2 3 3 1 3 3 3 4 5 1 4 4 4 3 4 5 7 6 7 8 7 6 5 6 7 9 5 3 11 17 17 15 10 9 12 14 13 12 11 10 9
5 5 5 4 4 3 2 3 4 5 6 7 8 8 9 10 11 12 12 13 13 13 12 9 6 3 1 1 3 2 4 6 7 6 7 6 5 4 4 3 5 9 7 6 6 3 1 2 4 3 2 3 2 4 3 4 2 3 2 3 3 5 6 7 7 9 9 6 3 4 9 10 7 3 5 13 16 15 12 9 9 9 10 11 11 11 8 7
5 5 5 3 2 2 2 3 4 5 6 7 8 8 9 10 11 12 12 12 13 13 12 8 5 2 3 2 5 0 5 4 5 6 5 4 3 3 4 2 4 8 6 3 4 3 1 2 3 3 3 1 2 4 3 1 3 3 5 5 5 6 7 6 9 12 10 7 6 6 12 12 3 1 5 10 12 11 9 9 10 7 9 10 8 8 6 5
6 5 3 2 1 1 2 3 3 5 6 7 8 8 9 10 11 11 11 12 11 11 10 7 4 3 5 5 4 3 4 4 4 3 2 2 2 3 4 2 2 6 6 3 3 3 2 1 1 2 1 1 2 5 5 2 3 3 5 7 9 7 9 10 11 13 6 4 8 9 10 11 1 4 9 13 12 9 9 11 12 9 9 8 6 7 6 6
5 3 2 1 0 0 2 2 3 5 6 8 8 9 10 11 11 12 11 11 11 11 9 5 3 5 5 3 4 7 5 4 3 2 2 3 3 3 5 4 3 5 5 2 2 6 6 3 5 3 2 1 2 4 2 2 3 4 3 5 10 7 9 13 11 10 5 3 5 8 3 8 4 7 12 12 10 8 9 10 10 10 9 5 5 6 6 10
3 2 1 1 1 1 2 3 4 6 8 9 10 11 11 12 13 13 11 11 10 10 7 3 5 8 5 0 5 10 11 8 5 3 2 1 1 3 6 6 4 4 4 1 3 6 6 5 5 2 1 2 1 2 0 2 3 5 2 1 6 6 7 11 7 6 4 3 5 9 1 6 8 10 11 9 6 6 9 10 10 10 7 5 5 5 9 12
2 2 1 1 0 1 2 4 5 6 9 10 11 12 12 13 13 12 11 11 9 8 5 2 8 8 4 2 4 6 11 11 8 6 3 3 3 4 6 7 5 4 3 1 1 4 5 6 6 3 0 2 2 3 4 4 2 4 2 1 2 2 6 9 5 2 1 2 3 7 3 6 8 10 10 8 6 7 9 11 13 10 6 6 5 7 10 11
3 2 2 1 0 1 2 4 5 6 8 10 11 12 13 13 12 11 10 10 8 5 1 6 9 7 2 4 4 3 6 7 7 7 4 5 5 4 5 5 5 4 2 1 0 3 4 4 4 2 2 1 1 2 4 4 3 2 1 2 2 3 5 10 8 3 3 2 2 4 4 5 7 10 11 10 7 7 9 12 13 9 7 7 6 9 8 8
4 2 2 1 0 1 3 3 5 6 8 10 12 12 13 13 10 9 8 6 3 3 6 5 6 5 1 3 1 2 5 5 7 8 6 6 5 5 7 6 4 4 2 1 2 2 4 4 2 2 1 2 3 3 3 4 4 2 2 3 4 3 3 6 7 3 3 2 2 1 2 4 5 8 11 10 8 8 9 12 11 8 7 9 9 8 8 8
3 2 1 0 1 3 4 4 5 6 8 10 12 12 13 12 8 5 5 3 4 6 7 3 2 1 2 1 1 2 4 5 8 9 7 7 6 8 9 5 4 6 5 4 4 3 3 2 0 1 1 0 3 4 4 2 4 4 1 3 4 4 3 3 6 4 4 4 2 3 3 6 7 7 9 11 12 11 10 11 10 6 7 9 8 9 9 10
2 2 1 2 3 4 4 5 6 7 9 10 11 13 13 9 4 2 2 3 4 4 4 2 2 0 2 2 2 2 3 6 8 8 9 8 8 9 6 3 5 7 6 4 2 3 2 1 2 1 2 1 2 4 2 4 5 4 4 3 4 4 3 4 5 3 1 0 3 4 6 8 9 9 10 12 12 10 10 9 7 5 9 9 8 10 9 11
2 2 2 3 3 3 4 5 6 8 9 9 10 12 9 4 2 2 0 1 1 1 0 1 3 2 2 2 3 3 5 7 7 5 8 10 9 8 3 3 6 5 4 2 1 1 2 3 4 1 2 3 5 7 9 9 8 7 7 4 4 4 5 6 6 4 2 3 5 7 7 7 8 9 10 13 10 6 8 6 5 7 9 8 9 9 9 11
3 2 2 3 4 3 4 5 6 7 9 9 10 10 4 2 2 1 1 1 4 5 2 4 6 3 3 1 5 6 6 6 4 3 9 10 9 8 2 2 5 3 2 4 2 2 3 4 2 4 6 9 10 10 11 10 8 6 6 5 5 5 5 6 6 6 2 1 6 7 4 5 6 8 11 12 7 6 5 5 8 8 8 8 9 9 10 11
4 4 3 4 6 5 5 5 6 7 7 8 9 6 1 2 1 1 2 3 8 11 8 9 10 9 8 4 9 10 6 2 1 3 9 9 8 7 2 2 4 1 2 4 2 0 4 4 6 9 11 12 11 9 8 7 7 6 6 5 5 5 5 6 6 7 2 0 6 4 4 6 7 9 14 9 6 6 3 8 8 8 9 7 9 10 9 9
6 5 5 6 7 6 5 5 6 7 6 5 6 3 3 2 1 1 1 3 8 10 11 13 11 10 10 6 8 9 5 1 1 2 7 8 5 5 3 4 5 3 3 4 3 2 3 3 10 13 11 9 8 6 6 7 7 6 5 3 4 4 3 5 5 5 3 1 5 6 5 7 8 11 13 6 7 5 6 9 7 8 9 8 9 9 8 9
9 7 6 7 7 6 5 5 7 8 5 2 3 2 2 2 2 2 2 1 7 6 7 8 7 8 8 4 6 7 4 4 3 4 8 9 3 4 5 5 6 4 3 6 5 5 4 6 12 13 8 7 8 8 7 7 5 4 4 3 5 4 2 4 5 5 4 2 3 4 6 5 7 9 6 7 7 8 9 10 10 8 10 10 9 8 9 10
10 9 8 8 8 6 3 6 8 7 4 2 2 1 2 1 2 2 1 0 4 5 4 5 4 3 3 3 5 6 3 3 2 3 9 10 4 3 5 6 7 5 4 9 10 8 6 7 9 8 6 7 8 9 7 5 4 3 3 4 4 4 3 5 4 5 5 4 1 2 5 4 5 8 1 5 4 8 9 9 10 8 8 9 9 9 9 9
13 11 11 10 9 6 3 5 6 3 3 2 1 1 2 1 2 2 1 1 3 5 2 1 1 1 2 3 3 4 2 1 0 2 7 8 3 2 3 4 5 5 6 8 9 7 8 7 5 6 6 6 7 7 5 3 2 4 3 5 6 6 5 4 3 4 5 5 3 4 4 5 5 7 4 4 4 6 7 7 9 7 7 8 8 9 8 8
16 14 14 13 10 7 3 3 2 3 2 3 3 1 0 2 2 3 2 2 3 4 1 1 0 2 3 2 2 3 3 1 2 1 3 2 1 1 2 2 2 4 6 5 3 3 4 3 2 5 6 5 6 6 5 6 3 3 4 4 5 5 3 1 3 3 1 2 3 3 1 6 4 6 7 5 7 6 6 7 7 6 6 7 8 7 6 7
17 16 14 14 13 8 4 1 4 4 2 3 4 3 2 2 2 3 1 3 3 2 3 0 1 2 3 0 1 4 2 2 0 2 2 2 2 1 1 3 2 2 2 2 1 2 3 1 3 4 3 4 5 5 5 7 6 3 5 4 5 5 3 2 3 1 3 2 5 1 4 5 4 6 7 6 9 5 5 6 5 6 6 7 7 7 7 7
19 17 14 15 15 13 9 5 4 4 3 4 5 3 2 2 3 2 2 2 3 2 2 1 1 2 1 1 3 4 2 2 3 1 1 2 1 2 1 3 3 2 2 4 3 5 1 3 3 5 4 3 5 5 5 8 5 5 5 5 5 4 4 3 4 1 2 2 5 5 4 3 5 5 2 7 7 4 5 6 5 6 6 7 7 7 7 6
20 19 17 17 17 17 16 11 7 5 5 6 5 2 1 1 3 2 2 2 1 2 1 1 2 1 1 2 2 1 1 0 2 1 1 2 0 2 1 4 2 2 3 3 5 5 1 4 6 6 4 5 6 4 4 6 4 4 3 3 3 2 2 2 4 2 1 2 4 7 4 3 5 5 1 5 4 5 5 5 5 5 6 6 6 6 6 6
22 21 20 19 18 18 17 13 12 9 7 6 3 2 1 1 1 2 3 4 1 1 1 2 1 1 3 3 1 1 2 1 1 1 2 1 1 3 0 1 2 2 2 3 1 4 2 1 2 4 4 6 4 2 2 3 3 3 4 4 5 5 3 3 2 3 3 2 6 8 7 6 3 5 3 3 3 8 9 6 6 6 6 7 6 5 5 5
22 20 20 21 20 19 13 8 14 15 11 8 3 3 2 1 1 4 6 2 2 0 2 1 1 2 4 4 2 2 2 1 1 3 1 1 3 3 1 1 2 3 3 4 4 4 3 2 2 2 2 4 5 3 2 3 2 4 5 4 4 4 4 5 4 4 2 4 7 6 6 7 4 5 3 3 4 6 11 10 11 9 7 6 5 5 4 4
21 19 20 21 19 18 12 6 12 16 15 11 4 3 3 1 2 4 2 1 1 2 2 2 3 4 4 4 3 4 3 2 2 3 3 3 3 2 2 3 3 2 2 3 2 3 2 4 4 2 1 4 6 2 3 5 5 5 4 5 3 3 3 2 2 0 2 5 6 3 3 4 6 5 1 5 7 4 8 8 10 10 8 7 5 5 4 4
19 18 19 20 18 18 14 8 8 13 15 12 6 2 3 3 4 3 3 2 1 2 2 2 2 4 5 3 2 3 3 2 4 2 2 4 3 3 4 5 5 4 2 4 0 2 2 5 3 0 2 2 7 4 2 2 1 4 4 4 4 1 1 2 3 1 3 5 5 3 1 1 5 3 4 5 5 6 10 11 10 9 9 7 6 4 4 4
17 17 17 18 18 17 16 11 8 12 17 13 5 2 4 4 3 2 5 5 2 1 1 2 2 2 4 3 3 4 3 2 4 3 1 3 3 3 4 5 5 4 3 2 0 2 2 5 3 5 2 3 7 6 6 5 3 4 5 5 5 4 3 4 3 3 3 4 5 4 1 2 3 1 4 4 5 7 10 10 9 9 7 6 5 4 4 4
15 15 15 17 18 16 16 13 8 12 18 11 3 3 5 3 1 2 4 4 2 1 1 1 3 3 1 1 2 3 3 2 3 3 1 4 4 4 3 4 6 5 3 2 2 2 3 5 5 2 0 6 7 4 5 6 1 2 3 4 2 4 5 2 3 4 3 3 4 3 2 2 3 2 3 4 7 8 8 8 9 8 6 5 5 4 4 4
14 13 12 14 16 16 16 14 11 16 16 7 3 6 5 3 2 3 2 1 2 3 3 1 3 3 2 2 2 3 1 2 3 3 1 3 3 4 5 3 6 8 6 4 2 2 2 5 4 2 2 4 5 2 3 4 1 0 3 2 4 4 5 1 4 2 1 3 4 2 3 2 2 2 2 4 7 7 6 6 7 6 5 5 4 4 3 3
13 10 7 9 15 16 16 14 16 19 11 4 5 6 3 3 3 2 1 0 1 3 4 2 1 3 4 2 3 4 1 1 2 3 2 3 2 4 5 2 2 7 8 5 2 3 3 3 4 2 1 3 2 2 3 2 2 3 2 4 3 1 3 2 1 2 3 5 4 3 6 4 2 2 1 4 5 5 4 5 6 5 5 5 4 5 4 4
12 7 3 9 16 17 16 17 18 15 6 3 8 7 3 3 2 1 1 1 2 2 3 4 3 3 4 3 3 3 4 3 3 4 2 2 3 3 5 2 1 1 4 5 2 2 2 1 6 1 2 2 2 4 3 5 3 3 3 2 1 1 1 1 1 2 4 5 3 5 7 5 4 4 4 5 6 7 6 5 6 6 6 6 5 5 5 4
10 5 2 8 16 17 17 19 16 9 3 4 7 6 3 2 1 2 3 1 2 2 2 3 2 1 2 3 2 2 4 4 4 4 2 2 3 1 3 3 1 2 2 6 4 2 2 2 4 3 1 0 3 3 1 3 3 3 2 2 1 3 3 2 2 2 3 4 4 5 5 4 4 4 7 9 9 10 8 6 6 7 7 6 5 5 4 4
8 2 2 5 14 17 19 18 10 4 4 4 3 3 2 1 2 3 4 3 1 1 2 2 1 2 1 2 2 1 2 2 3 2 1 2 2 1 2 1 2 1 3 6 4 0 2 2 3 3 3 1 1 1 5 4 1 2 2 2 1 1 1 2 2 2 3 3 4 5 5 4 3 1 5 9 9 9 9 8 7 6 6 6 6 5 5 4
4 1 1 4 14 19 18 11 4 3 4 3 2 2 2 2 2 1 2 4 2 0 1 2 2 3 2 1 1 1 1 1 1 0 2 1 1 1 1 1 1 3 2 5 3 1 1 2 2 2 2 1 4 5 4 5 5 4 2 3 3 2 0 2 3 2 3 3 3 4 5 4 3 2 2 6 8 8 9 9 7 7 8 8 6 6 6 5
2 1 1 7 17 21 14 5 3 3 3 4 3 2 2 3 2 2 2 3 2 2 2 1 3 3 3 3 2 3 2 1 2 2 2 4 3 2 2 1 1 3 4 2 0 1 2 3 2 3 4 4 6 4 1 2 5 6 3 2 4 3 3 3 4 3 2 2 1 1 4 2 2 2 2 6 7 8 8 8 8 9 9 7 6 6 5 5
2 1 3 10 19 18 8 4 4 3 4 3 2 3 3 3 3 4 4 3 2 3 3 3 4 4 4 5 4 4 5 3 5 6 4 5 5 1 2 2 1 3 4 2 1 1 3 3 1 3 4 3 4 4 5 4 2 4 0 0 2 3 3 4 4 2 1 3 1 1 4 2 1 2 2 6 6 6 7 8 8 7 6 6 7 6 5 4
2 1 2 9 19 16 6 4 5 5 5 3 3 5 4 3 5 6 7 7 5 4 4 3 4 5 6 6 6 6 6 4 5 7 5 4 3 1 4 1 2 3 1 2 3 1 1 2 2 0 2 4 5 4 4 5 3 2 2 1 2 3 3 2 1 2 1 3 3 3 4 3 1 1 2 5 5 6 6 7 6 6 6 6 6 5 5 5
2 1 1 5 14 11 4 1 2 4 7 5 5 7 5 4 6 8 8 8 6 5 4 3 6 6 5 5 6 6 7 5 4 3 3 2 1 2 4 3 4 3 1 0 4 3 2 3 3 3 4 5 4 2 2 1 2 0 2 2 1 3 3 1 0 1 2 2 2 3 4 3 2 1 3 4 4 5 7 6 6 6 6 6 6 6 6 6
2 2 1 3 6 6 4 1 1 2 5 6 6 7 8 7 4 5 9 8 7 7 3 1 4 5 4 6 6 6 6 5 3 2 2 3 1 1 2 3 5 3 2 3 4 4 3 1 3 5 6 7 5 5 4 3 1 3 4 5 6 5 3 3 2 3 3 1 3 7 7 5 8 8 4 5 5 6 6 6 6 6 5 6 6 6 6 6
2 2 3 4 3 5 5 4 4 3 3 6 5 5 9 10 5 3 6 6 6 7 3 1 4 5 6 7 6 5 5 4 4 4 3 3 2 1 2 4 4 2 3 3 3 3 4 1 3 5 6 6 5 5 2 3 2 5 6 8 9 6 3 4 4 5 4 2 6 10 8 6 10 11 6 4 6 6 6 6 7 7 6 6 6 6 6 6
2 1 3 4 3 5 7 8 9 8 7 6 4 3 6 10 9 6 5 3 4 6 5 4 6 8 7 7 6 5 5 4 4 4 4 3 3 1 2 3 2 2 3 3 2 4 5 3 3 4 4 7 4 2 2 1 3 5 6 8 10 10 7 5 6 8 6 6 10 11 10 9 10 10 7 5 6 6 6 7 5 3 6 6 6 7 6 6
2 1 2 2 2 5 9 11 12 12 12 8 5 5 6 8 10 8 4 3 3 5 6 6 7 9 8 7 6 5 5 6 4 3 3 3 3 3 1 1 2 2 5 3 2 3 4 2 2 3 2 6 5 3 1 1 3 5 7 10 11 11 9 7 9 10 8 9 12 11 11 13 11 8 6 7 6 4 3 2 2 5 7 7 7 6 6 6
2 0 1 1 1 3 5 7 9 10 10 9 7 7 5 5 7 5 3 5 5 4 5 7 7 7 8 8 7 6 6 6 6 4 4 5 3 2 2 2 1 2 4 2 1 2 2 1 1 3 1 5 4 2 1 2 3 6 10 13 12 10 10 10 11 9 7 10 12 10 10 12 9 5 5 4 1 3 4 4 4 6 7 7 6 6 6 6
3 0 1 0 2 3 3 4 8 7 6 8 9 8 6 8 8 4 1 2 5 4 6 9 8 4 4 6 7 7 5 6 7 6 6 6 5 3 2 2 4 4 2 1 0 1 2 1 1 4 2 5 2 4 2 5 4 7 14 17 15 11 9 9 8 8 9 11 10 8 8 9 6 5 5 1 5 5 5 5 5 5 5 6 7 6 6 5
4 2 2 1 2 3 3 4 6 7 6 7 9 8 7 8 7 6 2 1 2 0 4 9 10 5 3 6 6 6 6 7 7 6 5 4 4 4 3 3 5 5 3 3 1 0 3 3 0 3 2 6 3 4 4 3 2 7 11 13 13 12 10 8 8 10 11 9 7 7 7 7 5 5 5 2 4 5 5 5 4 4 5 6 6 6 5 5
Wind_Direction
318 315 313 314 299 286 289 294 294 293 299 300 298 302 301 305 306 305 308 311 316 318 319 321 326 331 331 333 333 330 328 324 320 311 281 280 278 270 312 342 344 188 176 161 152 154 153 179 221 182 128 14 41 112 331 336 72 57 79 100 267 231 214 217 253 310 226 251 282 288 73 92 333 319 341 327 327 294 296 292 273 274 263 251 259 268 267 215
322 319 310 308 292 287 292 298 301 299 300 300 300 299 298 302 303 306 308 309 313 313 316 320 325 329 330 334 331 330 327 320 317 304 288 295 252 228 278 308 232 172 174 167 172 178 162 210 222 169 103 28 296 53 350 298 94 99 125 145 229 215 230 263 299 327 332 286 305 338 24 45 334 303 355 301 287 293 297 288 296 295 276 270 272 277 260 216
321 320 316 314 298 292 300 309 311 307 309 314 317 313 309 310 311 314 312 312 313 314 318 320 326 327 329 330 329 332 325 322 321 304 324 81 148 193 247 270 146 159 172 166 178 205 213 257 206 165 100 318 254 100 90 301 221 172 135 171 240 225 260 294 304 322 321 301 355 350 356 351 300 301 348 280 283 285 265 263 287 290 281 280 284 293 239 208
322 318 317 319 312 305 305 309 307 308 314 321 326 324 322 321 317 316 314 315 315 316 320 320 325 325 327 328 328 330 325 337 331 257 108 116 138 144 145 122 127 157 167 164 186 226 259 292 186 154 110 274 287 83 152 222 205 179 145 188 233 225 271 281 291 312 324 31 58 327 336 323 295 318 297 284 296 282 252 235 242 265 277 276 273 294 273 208
322 319 318 319 318 323 317 309 304 307 315 322 325 321 323 319 313 314 315 318 318 319 321 321 325 324 330 332 329 330 342 20 251 209 140 134 139 135 124 108 136 169 172 173 198 210 262 308 56 81 79 246 309 47 221 217 165 181 200 206 226 230 267 272 290 309 320 9 11 338 324 293 298 332 272 280 283 266 249 229 235 246 265 273 270 287 289 253
320 317 318 318 321 331 321 313 309 310 317 320 317 316 320 317 315 317 315 317 316 316 318 320 323 325 334 336 328 335 4 30 240 193 167 160 152 149 122 131 186 181 180 177 195 191 234 325 53 70 106 215 257 217 246 233 154 211 258 229 230 230 244 268 295 302 305 333 319 298 282 277 323 305 254 243 257 262 258 235 245 253 261 274 279 277 278 275
318 318 315 313 309 316 313 312 315 318 320 317 317 320 322 321 323 321 318 317 314 313 314 317 317 317 328 332 317 355 52 243 267 249 217 193 176 194 176 224 210 188 188 178 181 187 171 127 154 184 154 262 232 216 259 293 167 201 263 261 247 245 252 277 300 306 300 281 268 273 314 303 285 283 276 258 261 268 271 251 250 263 269 278 282 271 260 260
314 314 311 307 299 306 319 325 327 328 327 326 328 328 327 326 325 323 320 318 315 313 313 315 313 314 330 347 311 357 327 250 272 267 228 208 210 234 237 246 205 193 193 187 195 188 151 172 221 204 204 259 243 254 294 348 281 212 248 258 281 289 283 298 305 302 296 280 275 295 300 265 246 267 303 271 271 275 275 270 259 266 274 278 277 274 266 259
308 303 303 303 309 325 341 340 341 339 337 337 334 331 329 328 325 324 321 317 316 313 313 317 309 304 299 90 86 8 272 249 264 250 217 213 226 233 233 235 202 198 194 205 222 228 194 205 228 198 183 245 294 305 327 24 296 276 306 295 324 306 292 305 299 285 284 275 258 279 279 262 248 286 283 260 263 271 282 290 275 271 276 272 272 272 270 271
291 292 294 302 324 345 350 348 352 348 346 341 336 333 329 327 324 321 318 316 315 311 314 314 299 254 203 137 92 299 260 262 269 237 214 214 217 212 206 200 198 200 199 234 255 270 239 206 232 173 165 262 307 300 340 40 251 314 353 324 303 298 301 298 287 280 278 271 242 233 265 269 240 169 272 261 255 271 298 299 284 281 274 268 274 285 296 299
283 290 289 301 329 350 3 355 354 355 351 346 339 334 329 327 325 321 318 314 311 310 313 308 281 212 173 139 132 215 252 266 269 231 193 163 149 163 171 166 201 204 213 263 314 359 44 90 60 109 175 343 331 315 327 288 282 330 359 335 307 316 314 288 279 278 271 268 232 197 252 281 261 169 247 262 268 291 305 293 292 291 278 278 296 308 322 345
279 285 270 258 172 26 10 352 359 3 356 353 345 338 334 331 327 322 318 314 312 311 311 304 245 190 154 119 202 223 233 243 237 165 136 123 124 158 168 174 197 207 223 258 27 40 46 49 67 85 250 6 346 321 303 268 337 323 6 339 303 333 313 280 274 266 234 231 205 157 251 292 265 226 242 258 279 301 298 290 293 287 285 315 341 331 3 30
263 270 253 202 147 51 23 2 6 6 0 356 348 344 338 333 330 324 320 317 314 311 310 293 194 177 150 120 237 227 233 236 229 212 195 195 226 206 193 192 192 202 219 212 52 42 36 35 72 115 245 68 299 287 318 352 3 316 359 90 294 346 306 274 274 267 241 219 168 138 201 274 254 254 257 267 282 299 303 299 293 290 304 345 346 6 42 44
240 249 240 182 66 9 20 10 4 4 1 355 349 343 337 334 330 324 321 319 318 313 307 173 170 161 141 247 261 244 237 233 236 239 228 217 199 187 198 202 200 203 216 208 55 30 27 30 55 68 333 136 235 311 351 350 338 298 336 129 279 328 281 285 295 297 324 288 147 139 210 258 259 274 281 282 289 307 312 298 290 299 325 332 344 45 58 46
210 209 211 196 329 358 15 7 0 0 358 352 346 338 332 330 327 324 324 321 322 317 178 147 160 146 79 276 270 245 216 214 220 219 201 187 166 158 187 193 197 196 214 236 49 19 33 42 54 71 290 270 111 14 352 338 316 286 294 301 287 187 263 300 298 262 189 275 29 132 218 265 266 275 281 284 297 312 302 286 291 313 343 360 32 61 63 46
181 177 196 197 270 28 24 10 0 354 351 347 339 330 326 324 322 325 328 330 355 86 115 131 158 141 5 269 178 158 188 191 195 188 176 180 172 158 159 154 152 149 142 114 111 88 78 72 62 133 252 313 107 102 40 0 325 305 192 243 263 217 260 304 303 300 140 123 17 202 244 279 270 272 280 290 302 302 287 283 298 324 8 48 63 61 56 45
183 217 229 120 39 36 28 14 3 351 343 338 331 324 321 318 312 322 350 29 96 101 92 93 159 142 293 205 132 205 192 182 182 179 175 181 178 161 149 127 121 128 113 91 103 111 84 81 132 149 51 340 142 110 55 344 293 302 244 219 246 236 235 282 298 324 74 105 244 253 239 247 263 281 290 294 292 290 286 291 310 341 53 74 72 62 56 47
208 265 319 2 11 24 16 4 360 351 340 333 328 321 320 319 290 280 19 74 106 90 57 39 108 90 282 206 195 196 157 164 171 176 182 173 163 162 151 106 121 116 93 61 62 90 57 44 96 61 350 333 154 133 163 231 227 241 247 244 265 255 247 269 273 288 14 344 254 260 254 253 268 281 283 277 272 279 289 302 333 39 81 81 69 67 61 53
225 276 318 333 344 357 353 349 351 349 338 327 326 322 323 337 279 243 286 70 88 113 191 209 163 159 248 214 186 135 122 149 151 160 174 163 159 169 166 113 117 100 85 55 344 129 119 62 68 87 261 240 212 192 201 217 214 222 239 242 252 261 267 262 258 264 292 303 272 257 256 259 265 272 274 272 275 299 305 330 47 79 84 79 72 69 61 58
218 244 266 298 313 326 334 338 343 347 337 325 330 331 334 24 4 329 265 215 219 225 231 204 197 231 281 204 141 134 129 140 140 157 164 160 157 156 151 95 87 46 101 145 201 204 121 102 140 199 213 224 224 215 213 224 229 235 253 259 251 253 267 265 266 273 284 319 261 250 265 280 274 276 272 275 310 336 331 57 83 86 77 74 74 67 61 60
221 242 256 281 299 313 320 325 335 344 333 322 331 342 110 125 28 311 287 271 247 242 249 238 220 236 249 188 153 157 144 111 344 168 164 161 149 145 169 111 100 347 214 152 147 138 103 131 207 218 218 227 233 226 222 235 244 241 237 243 253 248 253 261 267 277 294 154 261 294 353 301 286 282 281 296 8 356 38 93 90 83 79 71 69 65 61 61
225 239 249 271 289 302 310 317 326 333 324 313 333 6 123 122 119 179 218 300 277 249 242 250 244 244 243 210 179 170 149 159 237 222 180 159 147 168 181 122 139 208 187 126 98 121 138 206 232 227 223 238 257 252 242 249 253 254 247 239 261 268 288 290 292 310 356 84 272 319 332 294 284 279 293 348 69 55 53 82 82 80 82 68 64 63 59 59
225 233 248 270 281 290 310 319 317 322 314 307 354 31 105 90 118 152 148 293 291 264 229 241 241 242 241 214 180 161 162 206 199 244 193 156 150 193 165 147 176 203 163 159 163 157 178 234 237 234 228 238 261 268 265 270 275 267 262 262 272 292 346 289 299 334 344 274 256 300 299 292 284 280 334 41 88 89 71 76 75 76 83 79 73 66 59 59
222 232 249 265 273 276 299 314 313 313 300 313 3 35 75 53 174 161 127 174 282 276 239 225 211 214 213 161 153 148 175 219 170 226 190 165 158 167 170 174 178 194 200 191 185 181 207 226 226 229 221 207 236 265 267 273 299 284 222 209 250 278 245 234 280 331 335 317 323 14 326 300 256 257 353 68 83 86 85 81 76 71 78 83 78 68 62 60
229 246 257 259 268 269 263 305 311 283 266 278 260 198 75 348 220 161 85 28 282 289 285 218 146 120 126 109 136 144 136 209 329 224 183 177 171 142 196 193 169 206 221 200 193 206 234 238 225 235 240 205 210 250 241 201 295 306 242 210 221 235 237 242 331 8 18 340 323 49 360 294 254 252 231 149 102 79 80 78 80 76 71 76 70 65 62 61
239 259 265 249 250 253 251 296 256 198 249 250 222 205 90 282 227 174 90 40 288 273 172 139 66 150 148 105 131 114 87 267 291 33 132 169 270 134 197 228 163 211 217 197 194 217 235 245 195 210 231 201 194 242 227 160 130 289 251 199 180 161 146 105 46 35 60 261 290 70 79 275 271 258 247 157 115 99 89 79 82 80 70 73 71 66 63 56
246 262 262 239 230 227 218 222 196 192 231 222 204 206 261 289 236 202 90 16 283 212 126 352 354 132 156 167 117 113 127 223 54 26 81 63 321 76 169 234 159 210 234 112 64 255 199 103 80 134 149 156 181 242 231 152 131 231 236 145 112 105 115 157 117 104 228 245 319 333 182 258 277 253 242 137 114 110 102 92 89 89 82 83 80 72 68 59
246 254 251 232 227 225 219 214 197 196 203 188 173 186 272 288 227 206 74 314 280 123 111 293 75 90 113 69 79 109 175 174 115 288 2 67 343 55 117 229 168 235 278 122 185 265 194 158 194 151 124 157 198 224 190 144 148 231 218 146 118 134 170 174 134 176 261 10 318 268 188 233 273 266 220 123 128 156 144 128 113 102 92 87 84 77 71 67
246 250 249 234 228 223 217 214 201 188 183 167 152 152 353 250 214 70 82 234 290 78 64 71 110 61 51 70 40 103 130 65 138 220 6 77 56 73 160 228 164 231 274 144 190 254 245 188 193 140 133 202 214 225 167 145 180 221 180 129 67 90 145 119 127 141 26 27 256 238 186 197 272 292 139 128 158 184 161 139 126 112 99 87 78 75 68 64
249 252 250 233 217 210 208 209 206 197 180 174 161 107 76 265 155 113 212 224 34 83 86 71 143 128 101 97 337 222 129 55 131 87 33 93 49 28 270 239 85 101 333 4 253 255 303 303 190 141 175 195 172 153 107 132 164 126 89 51 18 7 24 54 93 94 67 293 248 228 202 186 268 295 208 182 208 171 154 146 141 117 97 90 76 74 70 65
246 247 237 219 205 197 192 201 211 209 204 199 181 105 113 33 106 190 222 211 59 160 124 109 178 123 137 140 157 195 138 115 151 107 103 115 64 24 7 8 36 56 14 342 310 291 323 329 246 231 197 137 109 91 24 27 80 93 75 58 26 340 7 31 7 43 105 249 259 241 203 176 214 264 242 302 312 153 149 156 150 128 106 98 83 77 74 70
237 232 217 206 199 194 193 208 208 206 209 204 184 126 121 138 216 207 222 90 95 209 156 168 188 165 179 164 152 179 150 151 189 139 144 146 136 184 192 179 159 69 344 263 285 319 277 238 246 288 285 130 114 102 345 358 31 79 84 79 65 344 3 13 314 8 198 247 254 222 136 162 221 250 346 354 351 62 107 124 130 121 112 103 91 81 71 63
219 214 205 203 202 200 201 197 184 190 192 183 169 140 130 198 222 185 172 192 187 190 127 110 161 165 158 152 176 181 141 167 189 171 164 145 155 226 246 226 174 133 198 205 278 346 305 298 286 232 303 161 136 147 224 301 98 128 136 130 122 102 26 266 258 253 260 266 254 228 103 243 251 294 25 23 13 59 91 101 108 111 112 111 107 97 73 57
199 196 196 198 197 199 197 183 171 177 172 159 147 164 170 204 232 163 192 212 172 144 95 96 119 110 128 163 206 171 144 200 176 145 103 134 149 230 257 253 207 151 134 155 195 181 210 303 245 180 239 176 162 182 175 145 154 179 165 142 144 156 177 223 232 222 248 271 276 277 284 213 214 342 26 40 47 64 84 96 100 99 105 109 104 92 75 62
184 184 189 190 191 195 193 188 183 168 161 148 130 198 200 204 207 163 204 217 175 132 39 80 107 100 149 221 240 181 157 191 160 126 154 171 173 199 209 227 204 173 129 144 229 184 184 258 242 197 177 159 173 213 153 113 87 233 147 118 164 192 178 215 248 210 202 274 284 271 253 204 146 86 55 65 67 70 75 85 92 94 100 103 100 97 90 79
172 175 182 189 195 196 187 187 181 167 162 147 166 213 219 203 173 183 206 207 173 139 119 70 83 118 227 270 265 231 138 125 155 138 208 199 195 213 213 217 193 176 159 159 210 192 176 263 270 26 16 176 178 204 136 117 173 211 111 171 224 190 147 158 285 263 176 251 252 226 263 301 83 84 68 70 73 80 84 91 100 108 109 109 120 132 129 123
162 166 180 197 204 198 187 183 175 171 170 160 198 216 210 197 198 192 217 100 136 118 128 173 176 167 207 231 225 217 154 109 158 155 220 217 217 217 202 212 192 184 181 168 211 208 170 266 270 149 164 245 193 100 38 46 122 135 177 223 236 84 97 112 258 279 256 248 249 241 254 258 224 234 130 101 108 116 126 123 119 124 131 142 159 164 165 159
152 146 205 220 209 198 189 184 174 172 175 186 211 222 186 191 219 142 137 102 92 86 134 196 209 178 183 199 223 195 166 185 175 164 205 221 230 208 174 173 346 222 182 134 128 243 136 267 283 238 158 247 27 63 12 350 33 128 194 225 90 85 282 284 168 212 241 250 269 262 251 246 235 215 164 169 174 161 160 150 144 158 167 172 175 177 182 165
138 117 278 225 206 196 187 182 172 167 202 205 211 216 173 186 246 161 161 129 81 97 163 209 211 179 188 175 184 164 160 186 183 171 183 195 226 229 131 147 38 353 36 112 139 238 105 137 277 309 90 133 33 60 196 281 354 38 35 1 39 167 192 221 195 179 215 243 266 265 254 252 252 207 175 191 187 167 163 163 174 187 185 186 184 181 185 175
126 113 304 202 192 187 178 175 168 173 218 213 198 185 150 179 227 184 159 144 115 113 181 203 157 170 206 154 156 164 159 185 176 178 224 205 234 335 63 100 123 90 33 78 110 90 83 152 234 308 349 52 77 203 178 172 126 54 32 356 287 240 211 253 248 166 166 218 245 255 253 248 263 236 182 188 176 161 164 168 182 195 195 203 200 186 187 188
118 148 270 167 175 173 166 170 186 193 212 219 189 172 159 161 181 166 107 118 134 131 126 168 184 174 166 162 169 132 77 333 151 176 286 265 299 307 210 2 102 142 65 54 65 95 138 168 184 270 304 189 220 230 168 151 155 145 156 198 200 204 200 274 272 207 165 195 202 230 262 262 273 303 160 156 153 158 168 167 173 194 201 205 203 191 189 189
117 141 152 160 170 169 165 187 208 177 214 218 193 193 164 136 156 173 121 99 139 163 120 181 207 189 179 197 189 137 123 260 227 205 243 234 235 233 212 241 106 116 108 98 201 156 118 114 139 242 244 218 237 253 131 160 180 161 170 207 184 167 143 189 249 234 205 248 151 217 267 254 251 282 126 134 149 158 164 166 175 194 202 198 195 192 186 184
126 129 131 159 173 177 181 214 195 187 230 196 162 206 185 152 173 179 167 160 165 163 169 199 196 198 211 202 194 180 164 188 215 205 207 217 218 245 272 235 152 78 89 136 227 29 76 94 137 266 285 300 299 328 16 15 108 143 258 333 161 179 156 173 217 188 183 270 305 289 256 216 238 306 105 126 138 148 168 184 185 191 198 197 195 185 174 184
120 98 86 162 183 194 212 219 193 205 220 181 175 213 203 185 193 187 181 185 181 165 178 200 191 204 217 195 194 203 180 184 230 216 198 195 185 26 348 337 114 86 62 181 176 164 112 132 137 195 299 317 333 348 355 0 45 128 246 273 161 175 136 110 136 118 160 237 202 210 247 216 182 337 105 122 132 156 197 206 188 186 196 200 194 179 178 191
121 110 40 167 191 208 236 231 192 221 216 206 214 215 209 215 204 192 188 189 188 176 175 206 196 188 194 185 195 213 199 196 231 222 175 159 152 6 359 25 91 107 289 154 123 125 140 159 145 142 204 240 260 247 226 289 33 89 267 292 256 202 186 161 150 171 219 238 191 215 248 256 276 240 162 156 165 190 220 221 207 210 204 189 180 179 182 178
141 188 154 147 190 224 248 222 197 241 214 202 219 222 214 222 222 186 188 196 200 189 176 216 186 171 176 185 191 214 218 206 191 179 159 148 160 330 4 42 67 107 143 76 74 89 107 173 178 164 196 223 219 211 194 131 129 259 275 282 273 255 217 175 173 202 208 236 256 248 242 256 277 269 219 175 194 219 234 227 222 227 204 179 175 173 169 166
166 199 183 155 174 220 233 230 213 219 214 198 205 218 210 212 222 201 199 206 196 186 185 240 192 188 187 180 183 208 211 196 182 185 170 141 124 14 35 53 53 73 98 69 43 82 99 267 233 173 205 234 211 209 214 92 161 229 252 268 268 262 220 167 188 211 199 223 258 255 251 249 262 267 255 199 207 228 242 241 237 226 195 171 159 155 159 171
202 190 194 181 181 204 211 216 210 210 224 223 219 235 212 201 202 205 204 198 184 184 191 211 206 199 184 170 176 195 191 191 204 197 175 146 128 100 24 25 12 16 59 44 357 86 112 243 246 160 221 259 253 259 308 68 208 222 235 254 262 261 243 208 218 224 208 231 257 262 266 262 259 267 271 251 242 244 242 246 247 197 159 144 143 155 170 188
205 270 256 218 195 210 210 206 199 206 218 220 229 241 215 192 199 202 172 142 198 211 199 204 205 192 184 173 165 177 189 189 206 214 178 149 139 144 140 354 330 22 66 69 354 71 109 236 254 142 224 272 274 274 280 221 237 254 253 252 255 261 258 240 241 238 221 232 252 261 267 267 263 262 262 261 260 242 199 181 114 121 137 144 156 174 193 211
183 203 258 260 238 224 221 199 186 200 216 214 225 234 208 191 203 196 154 167 190 206 198 197 193 179 185 186 174 194 206 175 172 196 172 152 157 160 166 195 197 57 57 72 333 15 85 171 224 105 56 286 263 156 133 245 242 266 271 264 259 262 264 256 252 253 244 242 248 253 260 265 270 270 259 249 173 105 113 119 124 141 154 159 173 195 208 218
237 229 143 161 239 201 186 189 182 190 211 211 219 221 207 214 207 166 123 206 171 180 198 186 167 139 164 181 177 198 202 148 147 169 159 155 170 170 172 187 155 123 80 103 138 18 80 159 292 79 68 280 250 128 214 264 273 272 268 262 255 249 248 249 244 236 237 246 254 254 253 259 270 277 268 154 100 109 128 131 131 152 169 169 184 207 212 213
251 263 175 160 251 207 177 183 186 194 207 206 210 212 207 216 202 165 193 306 83 218 228 175 158 132 134 170 179 185 167 134 130 135 126 121 115 107 113 132 134 134 143 153 154 114 128 135 131 104 138 272 271 133 185 244 314 278 258 248 246 243 240 244 244 239 235 236 247 249 248 250 244 242 245 187 127 145 161 156 151 166 188 195 200 206 209 214